www.pogodaiklimat.ru

Погода и климат >> Архив погоды >> Австралия >> Kununurra


ПОГОДА в Kununurra

  • Прогноз погоды в Kununurra
  • Монитор погоды в Kununurra
  • Климат города

АРХИВ ПОГОДЫ в Kununurra

Время (UTC), дата Ветер
(напр.,м/с)
 
Видим.   Явления Облачность Т
(С)
Тd
(С)
f
(%)
Тe
(С)
Тes
(С)
Комфортность P
(гПа)
Po
(гПа)
Тmin
(С)
Tmax
(С)
R
(мм)
R24
(мм)
S
(см)
22 10.11 штиль 0 9000 м н/о +27.7 +23.9 80 +38 +38 очень
душно
1009.3 1004.3
00 11.11 СВ 2 н/о н/о +33.1 +15.1 34 +44 +44 опасность
перегрева
1009.8 1004.8
01 11.11 СВ 6 н/о н/о +37.1 +10.4 20 +36 +36 очень
жарко
1009.4 1004.4 +24.2
03 11.11 В 5 н/о н/о +38.3 +6.1 14 +36 +36 очень
жарко
1007.6 1002.6
04 11.11 В 4 н/о н/о +39.4 +2.2 10 +36 +36 очень
жарко
1006.6 1001.7
06 11.11 Ю 3 н/о н/о +40.0 +5.2 12 +37 +37 очень
жарко
1005.0 1000.1
07 11.11 СЗ 2 н/о н/о +40.4 +7.8 14 +38 +38 очень
жарко
1004.5 999.6
09 11.11 С 6 н/о н/о +36.2 +16.4 31 +39 +39 очень
душно
1005.3 1000.4
10 11.11 СЗ 4 н/о н/о +34.0 +17.7 38 +38 +38 очень
душно
1006.1 1001.2
12 11.11 С 4 н/о н/о +29.9 +20.2 56 +36 +36 очень
душно
1008.2 1003.2
13 11.11 С 4 9000 м н/о +29.0 +21.7 65 +37 +37 очень
душно
1008.4 1003.4 +41.0
15 11.11 С 3 н/о н/о +26.8 +23.5 82 +36 +36 очень
душно
1008.1 1003.1
16 11.11 С 3 н/о н/о +26.0 +23.5 86 +35 +35 очень
душно
1007.8 1002.8
18 11.11 штиль 0 н/о н/о +25.1 +23.7 92 +34 +34 очень
душно
1007.3 1002.3
19 11.11 ЮЗ 2 9000 м н/о +24.7 +23.7 94 +34 +34 очень
душно
1007.5 1002.5
21 11.11 штиль 0 н/о н/о +24.2 +23.7 97 +33 +33 очень
душно
1009.0 1004.0
22 11.11 Ю 1 9000 м н/о +27.0 +24.8 88 +39 +39 очень
душно
1009.7 1004.7
00 12.11 С 2 н/о н/о +31.3 +24.2 66 +43 +43 опасность
перегрева
1010.0 1005.0
01 12.11 Ю 3 н/о н/о +33.5 +23.5 56 +44 +44 опасность
перегрева
1009.5 1004.5 +24.2
03 12.11 С 3 н/о н/о +37.2 +19.6 36 +42 +42 опасность
перегрева
1007.6 1002.6
04 12.11 С 3 н/о н/о +38.7 +16.9 28 +41 +41 опасность
перегрева
1006.4 1001.5
06 12.11 С 4 н/о н/о +39.9 +18.2 28 +38 +38 очень
жарко
1004.3 999.4
07 12.11 В 2 н/о н/о +40.4 +9.7 16 +39 +39 очень
жарко
1003.7 998.8
09 12.11 С 7 н/о н/о +36.1 +19.1 37 +41 +41 опасность
перегрева
1004.3 999.4
10 12.11 С 5 н/о н/о +34.0 +19.3 42 +39 +39 очень
душно
1005.1 1000.2
12 12.11 С 4 н/о н/о +30.9 +21.1 56 +38 +38 очень
душно
1007.0 1002.1
13 12.11 С 3 н/о н/о +29.0 +21.0 62 +36 +36 очень
душно
1007.4 1002.4 +41.1
15 12.11 С 4 н/о н/о +27.2 +23.0 78 +36 +36 очень
душно
1006.8 1001.9
16 12.11 С 1 н/о н/о +27.0 +23.9 83 +37 +37 очень
душно
1006.5 1001.6
18 12.11 С 2 н/о н/о +26.4 +24.2 88 +37 +37 очень
душно
1006.3 1001.4
19 12.11 С 3 7000 м н/о +26.1 +24.9 93 +37 +37 очень
душно
1006.5 1001.6
21 12.11 штиль 0 н/о н/о +25.9 +24.9 94 +37 +37 очень
душно
1007.5 1002.5
22 12.11 С 2 н/о н/о +28.2 +25.2 84 +41 +41 опасность
перегрева
1008.3 1003.3
00 13.11 С 5 н/о н/о +32.5 +23.7 60 +44 +44 опасность
перегрева
1008.6 1003.6
01 13.11 С 4 н/о н/о +34.8 +23.8 53 +46 +46 опасность
перегрева
1008.2 1003.2 +25.6
03 13.11 С 4 н/о н/о +37.6 +21.3 39 +45 +45 опасность
перегрева
1006.3 1001.4
04 13.11 С 4 н/о н/о +39.5 +20.7 34 +46 +46 опасность
перегрева
1005.2 1000.3
06 13.11 С 3 н/о н/о +39.9 +16.1 25 +42 +42 опасность
перегрева
1003.3 998.4
07 13.11 СЗ 2 н/о 3/0
[]
+40.0 +18.0 28 +43 +51 опасность
перегрева
1003.0 998.1
09 13.11 ЮВ 6 н/о н/о +32.5 +17.9 42 +37 +37 очень
душно
1005.7 1000.8
10 13.11 С 5 н/о в посл. час дождь {туман} 10/0
[]
+26.6 +22.0 76 +34 +34 очень
душно
1005.3 1000.4
12 13.11 С 4 н/о н/о +30.0 +22.7 65 +40 +40 очень
душно
1007.4 1002.4
13 13.11 С 3 н/о {туман} н/о +29.1 +22.3 67 +38 +38 очень
душно
1007.5 1002.5 +41.8
15 13.11 С 4 н/о н/о +27.4 +23.8 81 +38 +38 очень
душно
1007.4 1002.4
16 13.11 СВ 3 9000 м н/о +27.4 +24.5 84 +39 +39 очень
душно
1006.9 1002.0
18 13.11 штиль 0 н/о н/о +26.6 +24.4 88 +37 +37 очень
душно
1006.2 1001.3
19 13.11 С 3 9000 м н/о +26.9 +24.5 87 +38 +38 очень
душно
1006.7 1001.8
21 13.11 С 2 н/о н/о +26.7 +24.7 89 +38 +38 очень
душно
1008.2 1003.2
22 13.11 С 2 8000 м н/о +28.4 +24.4 79 +40 +40 очень
душно
1009.2 1004.2
00 14.11 С 5 н/о н/о +33.0 +23.0 56 +43 +43 опасность
перегрева
1009.7 1004.7
01 14.11 С 5 н/о {туман} н/о +33.8 +21.9 50 +42 +42 опасность
перегрева
1009.4 1004.4 +26.1
03 14.11 С 5 н/о н/о +37.8 +21.0 38 +45 +45 опасность
перегрева
1007.9 1002.9
04 14.11 СВ 4 н/о н/о +39.9 +20.6 33 +46 +46 опасность
перегрева
1006.8 1001.9
06 14.11 ЮВ 3 н/о н/о +33.1 +18.3 42 +38 +38 очень
душно
1004.6 999.7
07 14.11 С 3 н/о н/о +38.7 +19.5 33 +44 +44 опасность
перегрева
1004.3 999.4
09 14.11 Ю 9 н/о н/о +26.4 +20.3 69 +33 +33 очень
душно
1009.6 1004.6
10 14.11 З 4 н/о в посл. час дождь {туман} 10/0
[]
+24.3 +21.8 86 +31 +31 очень
душно
1006.6 1001.7
12 14.11 З 3 н/о н/о +25.2 +23.8 92 +34 +34 очень
душно
1008.6 1003.6
13 14.11 ЮВ 2 н/о {туман} 10/0
[]
+26.3 +24.0 87 +36 +36 очень
душно
1008.3 1003.3 +41.3
15 14.11 В 2 н/о н/о +26.2 +25.2 94 +38 +38 очень
душно
1009.2 1004.2
16 14.11 ЮЗ 2 9000 м 10/0
[]
+26.3 +24.5 90 +37 +37 очень
душно
1009.5 1004.5
18 14.11 З 1 н/о н/о +26.2 +24.4 90 +37 +37 очень
душно
1009.2 1004.2
19 14.11 штиль 0 7000 м 1/0
[]
+26.4 +25.0 92 +38 +38 очень
душно
1009.9 1004.9
21 14.11 С 2 н/о н/о +25.8 +23.8 89 +35 +35 очень
душно
1011.6 1006.6
22 14.11 С 2 н/о н/о +26.1 +24.1 89 +36 +36 очень
душно
1012.3 1007.3
00 15.11 С 5 н/о н/о +31.3 +23.7 64 +42 +42 опасность
перегрева
1012.9 1007.9
01 15.11 СЗ 3 н/о н/о +33.2 +22.9 55 +43 +43 опасность
перегрева
1012.4 1007.4 +26.1
03 15.11 З 4 н/о н/о +36.7 +21.3 41 +44 +44 опасность
перегрева
1010.4 1005.4
04 15.11 З 5 8000 м 1/1 1500 м
[]
+37.5 +19.4 35 +42 +52 опасность
перегрева
1009.4 1004.4
06 15.11 СЗ 3 н/о н/о +38.5 +18.9 32 +43 +43 опасность
перегрева
1007.4 1002.4
07 15.11 Ю 3 н/о н/о +39.6 +18.8 30 +44 +44 опасность
перегрева
1006.3 1001.4
09 15.11 С 3 н/о н/о +36.4 +21.0 41 +43 +43 опасность
перегрева
1006.4 1001.5
10 15.11 С 5 н/о н/о +33.8 +21.9 50 +42 +42 опасность
перегрева
1007.5 1002.5
12 15.11 В 1 н/о н/о +29.4 +20.3 58 +36 +36 очень
душно
1011.6 1006.6
13 15.11 С 3 н/о 1/0
[]
+29.0 +19.0 55 +34 +34 очень
душно
1010.5 1005.5
15 15.11 штиль 0 н/о н/о +26.3 +21.9 77 +34 +34 очень
душно
1009.7 1004.7
16 15.11 В 2 н/о н/о +26.2 +21.8 77 +34 +34 очень
душно
1009.7 1004.7
18 15.11 СВ 3 н/о н/о +25.1 +22.2 84 +33 +33 очень
душно
1009.3 1004.3
19 15.11 З 2 н/о 1/0
[]
+25.2 +21.7 81 +32 +32 очень
душно
1009.3 1004.3
21 15.11 штиль 0 н/о н/о +24.8 +21.7 83 +32 +32 очень
душно
1010.6 1005.6
22 15.11 штиль 0 н/о н/о +27.9 +22.8 74 +37 +37 очень
душно
1011.3 1006.3
00 16.11 З 4 н/о н/о +33.4 +20.9 48 +41 +41 опасность
перегрева
1011.6 1006.6
01 16.11 СЗ 4 н/о н/о +35.7 +21.2 43 +43 +43 опасность
перегрева
1011.5 1006.5
03 16.11 СЗ 3 н/о н/о +37.4 +19.3 35 +42 +42 опасность
перегрева
1009.2 1004.2
04 16.11 СЗ 4 н/о 6/0 2000 м
[]
+37.1 +18.6 34 +41 +52 опасность
перегрева
1008.1 1003.1
06 16.11 С 6 н/о н/о +37.6 +20.4 37 +44 +44 опасность
перегрева
1005.5 1000.6
07 16.11 С 6 н/о н/о +37.6 +19.5 35 +43 +43 опасность
перегрева
1005.3 1000.4
09 16.11 ЮЗ 10 н/о н/о +27.1 +21.2 70 +34 +34 очень
душно
1007.9 1002.9
10 16.11 В 3 н/о в посл. час дождь {туман} 10/0
[]
+25.7 +23.9 90 +35 +35 очень
душно
1009.5 1004.5
12 16.11 З 4 н/о н/о +25.8 +23.7 88 +35 +35 очень
душно
1009.4 1004.4
13 16.11 ЮЗ 5 н/о в посл. час дождь {туман} 10/0
[]
+26.9 +23.4 81 +36 +36 очень
душно
1009.9 1004.9 +40.3
15 16.11 СВ 5 н/о н/о +26.1 +23.6 86 +35 +35 очень
душно
1008.5 1003.5
16 16.11 ЮЗ 2 8000 м 9/0
[]
+26.4 +23.5 84 +36 +36 очень
душно
1008.6 1003.6
18 16.11 ЮВ 3 н/о н/о +26.5 +24.2 87 +37 +37 очень
душно
1008.4 1003.4
19 16.11 ЮЗ 2 н/о 10/0
[]
+26.3 +23.6 85 +36 +36 очень
душно
1008.8 1003.8
21 16.11 штиль 0 н/о н/о +25.8 +24.6 93 +36 +36 очень
душно
1010.8 1005.8
22 16.11 СЗ 2 н/о 10/0
[]
+26.5 +24.5 89 +37 +38 очень
душно
1012.0 1007.0
00 17.11 СВ 4 н/о н/о +30.7 +22.0 60 +39 +39 очень
душно
1012.6 1007.6
01 17.11 С 5 н/о 3/3 1000 м
[]
+31.8 +21.6 55 +40 +45 очень
душно
1012.5 1007.5 +25.2
03 17.11 СВ 4 н/о н/о +33.7 +20.1 45 +40 +40 очень
душно
1010.5 1005.5
04 17.11 СЗ 5 н/о 6/0
[]
+34.0 +18.9 41 +39 +48 очень
душно
1008.7 1003.7
06 17.11 ЮВ 3 н/о н/о +36.5 +18.6 35 +41 +41 опасность
перегрева
1006.6 1001.7
07 17.11 Ю 3 н/о н/о +36.7 +17.8 33 +40 +40 очень
душно
1005.7 1000.8
09 17.11 В 2 н/о н/о +35.0 +22.0 47 +44 +44 опасность
перегрева
1005.6 1000.7
10 17.11 С 5 н/о н/о +32.3 +22.4 56 +42 +42 опасность
перегрева
1006.4 1001.5
12 17.11 С 3 н/о н/о +29.7 +21.9 63 +38 +38 очень
душно
1008.6 1003.6
13 17.11 С 2 н/о 9/0
[]
+28.8 +22.5 69 +38 +38 очень
душно
1009.1 1004.1 +37.8
15 17.11 С 4 н/о н/о +28.0 +23.2 75 +38 +38 очень
душно
1008.8 1003.8
16 17.11 СЗ 2 9000 м 3/0
[]
+27.2 +22.8 77 +36 +36 очень
душно
1009.0 1004.0
18 17.11 ЮВ 6 н/о н/о +27.7 +21.5 69 +35 +35 очень
душно
1008.9 1003.9
19 17.11 ЮВ 6 2000 м туман 8/8 600 м
[]
+23.5 +23.0 97 +31 +31 очень
душно
1009.5 1004.5

 

Местоположение метеостанции Kununurra (Западная Австралия, Австралия): широта -15.78 долгота 128.71 высота над уровнем моря 44 м.

В архиве по умолчанию представлена погода в Kununurra за последнюю неделю. Архивные данные за месяц целиком и за предыдущие месяцы, начиная с января 2011 года, Вы можете получить, выбрав интересующий диапазон дат из раскрывающегося списка и нажав кнопку "Ввод!".


*Определитесь, кто Вы:
робот инопланетянин человек

Внимание! Время в таблицах - всемирное. Для получения местного времени необходимо прибавить поправку, которая в Kununurra равна 8 ч.

Смотрите также архив погоды в соседних городах и на ближайших метеорологических станциях:

Погода в Wyndham Aero (Западная Австралия, Австралия) (68 км)
Погода в Argyle Aero (Западная Австралия, Австралия) (99 км)
Погода в Port Keats Aero (Северная территория, Австралия) (192 км)
Погода в Manbulloo Csiro (Северная территория, Австралия) (242 км)
Погода в Victoria River Downs (Северная территория, Австралия) (256 км)
Погода в Kalumburu (Западная Австралия, Австралия) (276 км)
Погода в Halls Creek Airport (Западная Австралия, Австралия) (294 км)
Погода в Truscott (Западная Австралия, Австралия) (314 км)
Погода в Cape Don Lighthouse (Северная территория, Австралия) (343 км)
Погода в Delamere Weapons Range (Северная территория, Австралия) (344 км)

Пояснения к столбцам:

Ветер - указаны скорость ветра в м/с - средняя за 10 мин, порывы в срок и между сроками (в фигурных скобках) и направление, откуда дует ветер: С - северный, СВ - северо-восточный, В - восточный, ЮВ - юго-восточный, Ю - южный, ЮЗ - юго-западный, З - западный, СЗ - северо-западный.
Видимость - горизонтальная дальность видимости в метрах или километрах. При видимости от 1 до 10 км при отсутствии осадков обычно наблюдается дымка, при ухудшении видимости до 1 км и менее - туман. В сухую погоду видимость может ухудшаться дымом, пылью или мглою.
Явления - указаны атмосферные явления, наблюдавшиеся в срок или в последний час перед сроком; фигурными скобками обозначены явления, наблюдавшиеся между сроками (за 1-3 часа до срока); квадратными скобками обозначены град или гололедные отложения с указанием их диаметра в мм.
Облачность - указаны через наклонную черту общая и нижняя облачность в баллах и высота нижней границы облаков в метрах; квадратными скобками обозначены формы облаков: Ci - перистые, Cs - перисто-слоистые, Cc - перисто-кучевые, Ac - высококучевые, As - высокослоистые, Sc - слоисто-кучевые, Ns - слоисто-дождевые, Cu - кучевые, Cb - кучево-дождевые. Подробнее классификацию облаков см. в Атласе облаков (PDF).
T - Температура воздуха - температура, измеренная на высоте 2 м над землей.
Td - Температура точки росы - температура, при понижении до которой содержащийся в воздухе водяной пар достигнет насыщения.
f - Относительная влажность воздуха - влажноcть воздуха, измеренная на высоте 2 м над землей.
Te - Эффективная температура - температура, которую ощущает одетый по сезону человек в тени. Характеристика душности погоды. При расчете учитывается влияние влажности воздуха и скорости ветра на теплоощущения человека.
Tes - Эффективная температура на солнце - температура, которую ощущает человек, с поправкой на солнечный нагрев. Характеристика знойности погоды. Зависит от высоты солнца над горизонтом, облачности и скорости ветра. Ночью, в пасмурную погоду, а также при ветре 12 м/с и более поправка равна нулю.
P - Атмосферное давление - приведенное к уровню моря атмосферное давление.
Po - Атмосферное давление - измеренное на уровне метеостанции атмосферное давление.
Tmin - Минимальная температура - минимум температуры воздуха на высоте 2 м над землей.
Tmax - Максимальная температура - максимум температуры воздуха на высоте 2 м над землей.
R - Количество осадков - Количество выпавших осадков за период времени, мм. При наведении курсора мыши на число - период времени, за который выпало указанное количество осадков.
R24 - Количество осадков - Количество выпавших осадков за 24 часа, мм.
S - Снежный покров - Высота снежного покрова, см. При наведении курсора мыши на число - состояние снежного покрова и степень покрытия местности в баллах.